[[{"header":{"parameterUnit":"m.s-1","parameterCategory":2,"la1":30.2991,"la2":30.254,"lo1":-89.0895,"lo2":-89.0444,"dy":0.0017,"dx":0.0017,"nx":28,"ny":28,"refTime":"2026-02-08T09:00:00:Z","depth":"0","parameterNumber":2,"parameterNumberName":"U-component_of_CURRENTS"},"data":[0,0,0,0,0,0,0,0,0,0,0,0,0,0,0,0,0,0,0,0,0,0,0,0,0,0,0,0,0,0,0,0,0,0,0,0,0,0,0,0,0,0,0,0,0,0,0,0,0,0,0,0,0,0,0,0,0,0,0.1393,0.1395,0,0.1537,0.1539,0.154,0.1588,0.1588,0.1588,0.1588,0.1659,0.1661,0.1663,0,0,0,0,0,0,0,0,0,0,0,0,0,0.1213,0.1215,0.1393,0.1395,0.1397,0.1537,0.1539,0.154,0.1588,0.1588,0.1588,0.1588,0.1658,0.166,0.1663,0,0,0,0,0,0,0,0,0,0,0,0,0,0.1313,0.1216,0.1392,0.1442,0.1448,0.1537,0.1539,0.1541,0.1588,0.1588,0.1588,0.1588,0.1657,0.166,0.1663,0.1687,0,0,0.1673,0.1674,0,0,0,0,0,0,0,0,0.1307,0.1318,0.1432,0.1438,0.1446,0.1549,0.1502,0.1588,0.1589,0.153,0.1588,0.1588,0.1618,0.1625,0.1647,0.169,0.1694,0.1673,0.1675,0.1676,0.1677,0,0,0,0,0,0,0,0.13,0.1313,0.1445,0.1435,0.1443,0.1476,0.1488,0.1518,0.1569,0.1535,0.154,0.1564,0.1621,0.1644,0.1649,0.1695,0.1673,0.1676,0.1677,0.1679,0.1814,0.1816,0,0,0,0,0,0,0.1289,0.1306,0.1441,0.145,0.1379,0.1479,0.1493,0.1512,0.157,0.1581,0.1564,0.1566,0.1639,0.1645,0.1651,0.1718,0.1676,0.1679,0.1681,0.1812,0.1814,0.1816,0,0,0,0,0,0,0.1285,0.13,0.1435,0.1385,0.1405,0.1482,0.1503,0.1515,0.1539,0.1594,0.1602,0.1576,0.1639,0.1647,0.1691,0.172,0.168,0.1683,0.181,0.1813,0.1815,0.1829,0,0,0,0,0,0,0.1279,0.1297,0.1301,0.1384,0.1408,0.1476,0.1504,0.1518,0.1556,0.1559,0.1607,0.1613,0.1639,0.1686,0.1694,0.1723,0.1685,0.1808,0.1811,0.1814,0.1826,0.1832,0.1836,0,0,0,0,0,0.1272,0.1281,0.13,0.1316,0.1412,0.1477,0.149,0.1542,0.1556,0.1562,0.1609,0.1612,0.1713,0.169,0.1699,0.1729,0.1806,0.181,0.1814,0.1824,0.1831,0.1836,0,0,0,0,0,0,0.119,0.129,0.1312,0.1345,0.1401,0.1486,0.1504,0.1539,0.1582,0.1584,0.1629,0.164,0.1697,0.1709,0.1683,0.1781,0.1762,0.1768,0.1767,0.1773,0.1778,0.185,0.1688,0,0,0,0,0,0.1178,0.1222,0.1302,0.1328,0.1353,0.1426,0.1457,0.1492,0.1549,0.1568,0.1612,0.1662,0.1722,0.174,0.1788,0.1828,0.1906,0.1857,0.1862,0.1866,0.1932,0.2083,0.2109,0.1829,0.1829,0.1829,0,0,0.1159,0.1216,0.1242,0.1316,0.1363,0.1417,0.1442,0.1488,0.1543,0.1568,0.1641,0.168,0.1739,0.1801,0.1825,0.181,0.1974,0.1871,0.1874,0.194,0.2091,0.2118,0.2143,0.1832,0.1831,0.1831,0,0,0.1159,0.1186,0.123,0.1274,0.1347,0.1397,0.1408,0.149,0.153,0.1593,0.1648,0.1722,0.177,0.1855,0.1895,0.1959,0.2002,0.1943,0.2021,0.2164,0.219,0.2213,0.2296,0.2327,0.1937,0.1937,0.1937,0,0.113,0.1214,0.1247,0.1296,0.1354,0.1389,0.1454,0.1492,0.1581,0.1648,0.1611,0.1796,0.1819,0.1972,0.1993,0.1976,0.2043,0.1983,0.2174,0.2199,0.2223,0.2303,0.2338,0.1939,0.1938,0.1938,0.1938,0,0.1181,0.1242,0.1265,0.1357,0.1396,0.1458,0.152,0.1568,0.161,0.168,0.1817,0.1872,0.1998,0.1997,0.2012,0.2198,0.2182,0.2165,0.216,0.2253,0.2329,0.2365,0.194,0.194,0.1939,0.1939,0,0,0.122,0.129,0.1311,0.1386,0.1451,0.1514,0.1573,0.1699,0.179,0.1844,0.199,0.2092,0.2138,0.2194,0.2224,0.234,0.2524,0.2324,0.2331,0.241,0.2814,0.2708,0.2736,0.2537,0.2544,0.255,0.278,0,0.129,0.1392,0.1402,0.1534,0.1634,0.1656,0.1721,0.1812,0.1882,0.2006,0.2099,0.2219,0.2203,0.2259,0.2385,0.2492,0.2628,0.2462,0.2714,0.2722,0.262,0.2779,0.2705,0.2899,0.2815,0.2821,0.2825,0,0.1443,0.1488,0.1601,0.1715,0.1748,0.1791,0.195,0.2005,0.2138,0.2185,0.2318,0.237,0.2554,0.2503,0.2791,0.2681,0.2786,0.2856,0.2866,0.281,0.2686,0.2805,0.2967,0.291,0.288,0.2876,0.2872,0,0.1621,0.1696,0.1797,0.1831,0.1899,0.1951,0.1985,0.2092,0.2154,0.2313,0.2371,0.2573,0.2663,0.2848,0.2947,0.2902,0.3235,0.318,0.3202,0.3191,0.3209,0.3188,0.3366,0.3457,0.3457,0.3456,0.3455,0,0.1818,0.1921,0.188,0.195,0.205,0.2067,0.2181,0.2232,0.2312,0.2394,0.248,0.2579,0.2762,0.292,0.3033,0.3211,0.3313,0.3292,0.3286,0.3198,0.3175,0.3186,0.3182,0.3465,0.3463,0.3461,0.346,0,0.2052,0.2036,0.2148,0.2153,0.2156,0.2229,0.2227,0.2294,0.236,0.2465,0.2508,0.2642,0.2829,0.2982,0.3259,0.3301,0.3429,0.3525,0.3366,0.3338,0.3264,0.3262,0.3365,0.3309,0.362,0.362,0.3619,0,0.218,0.2258,0.2254,0.2256,0.2247,0.2301,0.2311,0.2337,0.2371,0.2488,0.2538,0.2723,0.2819,0.3135,0.3292,0.3499,0.3444,0.3525,0.345,0.3318,0.3316,0.3154,0.3088,0.3466,0.3464,0.3463,0.3462,0,0.2359,0.2337,0.2354,0.2345,0.2347,0.2355,0.2359,0.2384,0.2408,0.2473,0.2544,0.2624,0.2893,0.3052,0.3285,0.34,0.3384,0.3498,0.3466,0.3329,0.3079,0.2997,0.3196,0.3449,0.345,0.3451,0.3452,0.3453,0.2416,0.2429,0.2387,0.2387,0.2381,0.2354,0.234,0.2334,0.2355,0.2389,0.2499,0.2583,0.2848,0.3157,0.3236,0.3343,0.3325,0.3331,0.3376,0.3247,0.3099,0.3223,0.338,0.3381,0.3381,0.3382,0.3383,0,0.2414,0.2397,0.2404,0.2358,0.2331,0.2334,0.2313,0.2274,0.2247,0.2338,0.2381,0.2591,0.2797,0.3012,0.3265,0.325,0.3124,0.3206,0.3027,0.2999,0.3239,0.3132,0.3116,0.3116,0.3116,0.3116,0.3116,0.3116,0.2394,0.2366,0.2354,0.2282,0.2256,0.2181,0.2151,0.2119,0.2155,0.219,0.2268,0.237,0.268,0.3092,0.3225,0.318,0.3051,0.2932,0.2931,0.3156,0.317,0.3184,0.308,0.3054,0.3054,0.2555,0.2552,0.255]},{"header":{"parameterUnit":"m.s-1","parameterCategory":2,"la1":30.2991,"la2":30.254,"lo1":-89.0895,"lo2":-89.0444,"dy":0.0017,"dx":0.0017,"nx":28,"ny":28,"refTime":"2026-02-08T09:00:00:Z","depth":"0","parameterNumber":3,"parameterNumberName":"V-component_of_CURRENTS"},"data":[0,0,0,0,0,0,0,0,0,0,0,0,0,0,0,0,0,0,0,0,0,0,0,0,0,0,0,0,0,0,0,0,0,0,0,0,0,0,0,0,0,0,0,0,0,0,0,0,0,0,0,0,0,0,0,0,0,0,0.0495,0.0495,0,0.0471,0.047,0.047,0.0457,0.0457,0.0457,0.0458,0.037,0.0368,0.0365,0,0,0,0,0,0,0,0,0,0,0,0,0,0.0502,0.0502,0.0495,0.0495,0.0495,0.0471,0.047,0.0469,0.0457,0.0457,0.0457,0.0458,0.0371,0.0368,0.0365,0,0,0,0,0,0,0,0,0,0,0,0,0,0.0487,0.0502,0.0495,0.0489,0.0488,0.0471,0.047,0.0469,0.0457,0.0457,0.0458,0.0458,0.0372,0.0368,0.0364,0.0331,0,0,0.0352,0.0351,0,0,0,0,0,0,0,0,0.0488,0.0486,0.049,0.0489,0.0489,0.047,0.0441,0.0421,0.0457,0.0465,0.0458,0.0458,0.04,0.0394,0.0384,0.0327,0.0323,0.0352,0.035,0.0348,0.0347,0,0,0,0,0,0,0,0.0489,0.0487,0.0482,0.049,0.0489,0.0477,0.0475,0.0437,0.0426,0.0464,0.0464,0.0467,0.0399,0.0388,0.0382,0.0322,0.0352,0.0349,0.0346,0.0345,0.025,0.025,0,0,0,0,0,0,0.05,0.0488,0.0483,0.0482,0.0493,0.0477,0.0475,0.0473,0.0428,0.0423,0.0466,0.0466,0.0394,0.0386,0.0378,0.0371,0.0348,0.0344,0.0342,0.025,0.025,0.025,0,0,0,0,0,0,0.05,0.05,0.0484,0.0488,0.0485,0.0477,0.0474,0.0472,0.0462,0.0431,0.0424,0.0459,0.0394,0.0384,0.0348,0.0366,0.0343,0.0339,0.025,0.025,0.025,0.0334,0,0,0,0,0,0,0.05,0.05,0.0494,0.0488,0.0486,0.0467,0.0474,0.0472,0.0465,0.0464,0.0422,0.0415,0.0394,0.0354,0.0344,0.036,0.0336,0.025,0.025,0.025,0.0331,0.0336,0.0341,0,0,0,0,0,0.0501,0.049,0.0494,0.0493,0.0481,0.0467,0.0463,0.0457,0.0464,0.045,0.0433,0.0416,0.0346,0.0351,0.0339,0.0355,0.0251,0.025,0.025,0.0329,0.0335,0.0341,0,0,0,0,0,0,0.0476,0.0488,0.0492,0.0481,0.0474,0.0466,0.0453,0.0456,0.0432,0.043,0.0407,0.0397,0.0377,0.0343,0.035,0.0324,0.0297,0.0295,0.0361,0.0367,0.0371,0.047,0.0333,0,0,0,0,0,0.0473,0.0477,0.0477,0.0468,0.0464,0.046,0.0453,0.045,0.0435,0.0426,0.0406,0.0381,0.0365,0.0349,0.0319,0.0296,0.0324,0.0298,0.0303,0.0307,0.0378,0.0442,0.0461,0.0249,0.0249,0.0249,0,0,0.0467,0.0469,0.0474,0.0465,0.0458,0.0465,0.0455,0.0442,0.046,0.0417,0.0421,0.0392,0.0361,0.0348,0.0335,0.0323,0.0367,0.0307,0.0311,0.0381,0.0444,0.0465,0.0485,0.0248,0.0248,0.0248,0,0,0.0463,0.0452,0.0461,0.0456,0.0451,0.0453,0.0452,0.0445,0.0449,0.0436,0.0431,0.0435,0.0368,0.0392,0.0386,0.0398,0.0391,0.0353,0.0461,0.052,0.0541,0.0559,0.0569,0.0588,0.0356,0.0357,0.0357,0,0.0453,0.048,0.0456,0.0461,0.0483,0.0455,0.0484,0.047,0.0457,0.05,0.0441,0.0463,0.0413,0.0483,0.048,0.042,0.0431,0.0443,0.0535,0.0553,0.0571,0.0578,0.0598,0.0361,0.036,0.036,0.0359,0,0.0467,0.049,0.0489,0.0509,0.0509,0.0524,0.052,0.053,0.0529,0.055,0.0602,0.0555,0.0598,0.0552,0.0513,0.0617,0.0573,0.0536,0.0536,0.0599,0.0599,0.0618,0.0366,0.0365,0.0364,0.0363,0,0,0.0492,0.0503,0.0513,0.0561,0.0553,0.0573,0.0595,0.0659,0.0736,0.07,0.082,0.0778,0.0794,0.0793,0.0752,0.0789,0.087,0.0717,0.0718,0.0758,0.0974,0.0865,0.0875,0.0847,0.0852,0.0856,0.0906,0,0.0539,0.0584,0.0573,0.0653,0.0705,0.0699,0.0739,0.0782,0.081,0.0897,0.0904,0.096,0.0869,0.0893,0.0928,0.0898,0.0934,0.0859,0.0885,0.0886,0.0808,0.09,0.083,0.0865,0.0925,0.0929,0.0931,0,0.0615,0.0643,0.0716,0.0807,0.0826,0.0851,0.0978,0.1003,0.1095,0.1121,0.1202,0.1196,0.1272,0.1157,0.1208,0.116,0.11,0.1055,0.1055,0.0963,0.0817,0.0819,0.0898,0.068,0.0961,0.0958,0.0956,0,0.0738,0.0785,0.0863,0.0881,0.0931,0.0986,0.1017,0.1098,0.1154,0.1283,0.1344,0.1432,0.1461,0.1451,0.1331,0.129,0.1354,0.128,0.1135,0.1122,0.1082,0.1059,0.0997,0.1347,0.1347,0.1347,0.1347,0,0.0856,0.0933,0.0926,0.0976,0.1075,0.1088,0.1206,0.1254,0.1347,0.144,0.1475,0.1562,0.1537,0.1539,0.1437,0.1347,0.1441,0.1212,0.1163,0.1095,0.1073,0.0894,0.0795,0.1349,0.1348,0.1348,0.1347,0,0.0991,0.0992,0.108,0.1122,0.1137,0.1205,0.1258,0.1339,0.1426,0.1551,0.1593,0.1684,0.1705,0.1634,0.1602,0.1463,0.1264,0.1319,0.121,0.1149,0.0808,0.0716,0.0735,0.0591,0.1219,0.1218,0.1216,0,0.106,0.1116,0.1151,0.1169,0.118,0.1253,0.1291,0.1368,0.1443,0.1609,0.1677,0.1757,0.1812,0.1725,0.1532,0.1385,0.1208,0.117,0.1096,0.0832,0.0694,0.0674,0.0548,0.1049,0.1047,0.1044,0.1042,0,0.1161,0.1158,0.1188,0.1219,0.1254,0.1306,0.1373,0.1443,0.1545,0.1656,0.1792,0.1864,0.1807,0.1672,0.1452,0.1305,0.0999,0.1115,0.0909,0.0641,0.056,0.0379,0.0925,0.1022,0.1024,0.1026,0.1027,0.1027,0.1186,0.1206,0.121,0.1247,0.1283,0.1342,0.1396,0.1478,0.1594,0.1761,0.1836,0.1965,0.1797,0.1526,0.1251,0.0754,0.0842,0.0606,0.0541,0.0563,0.0369,0.0841,0.0827,0.0828,0.0829,0.0829,0.083,0,0.1192,0.1201,0.1229,0.1266,0.1305,0.133,0.1431,0.1496,0.1617,0.1792,0.191,0.1969,0.1591,0.1252,0.0647,0.026,0.0125,0.0063,0.002,-0.0069,0.0411,0.0338,0.0136,0.0137,0.0137,0.0137,0.0137,0.0138,0.1185,0.1199,0.1214,0.1264,0.1296,0.1363,0.142,0.1531,0.1673,0.1892,0.2049,0.2195,0.2052,0.093,0.0076,-0.0187,-0.0507,-0.0506,-0.0646,-0.0351,-0.0305,-0.0262,-0.0355,-0.0699,-0.07,-0.1119,-0.1123,-0.1126]}],[{"header":{"parameterUnit":"m.s-1","parameterCategory":2,"la1":30.2991,"la2":30.254,"lo1":-89.0895,"lo2":-89.0444,"dy":0.0017,"dx":0.0017,"nx":28,"ny":28,"refTime":"2026-02-08T09:00:00:Z","depth":"2","parameterNumber":2,"parameterNumberName":"U-component_of_CURRENTS"},"data":[0,0,0,0,0,0,0,0,0,0,0,0,0,0,0,0,0,0,0,0,0,0,0,0,0,0,0,0,0,0,0,0,0,0,0,0,0,0,0,0,0,0,0,0,0,0,0,0,0,0,0,0,0,0,0,0,0,0,0.0684,0.0684,0,0.0675,0.0675,0.0675,0.0649,0.0649,0.0648,0.0648,0.0551,0.0549,0.0547,0,0,0,0,0,0,0,0,0,0,0,0,0,0.0667,0.0667,0.0684,0.0684,0.0684,0.0676,0.0675,0.0675,0.0649,0.0649,0.0648,0.0648,0.0552,0.0549,0.0547,0,0,0,0,0,0,0,0,0,0,0,0,0,0.0666,0.0667,0.0684,0.0671,0.067,0.0676,0.0675,0.0675,0.0649,0.0649,0.0648,0.0647,0.0553,0.0549,0.0546,0.0539,0,0,0.0536,0.0535,0,0,0,0,0,0,0,0,0.0666,0.0667,0.0673,0.0672,0.0671,0.0664,0.0634,0.0626,0.065,0.0656,0.0648,0.0647,0.0582,0.0576,0.0575,0.0534,0.053,0.0536,0.0534,0.0533,0.0532,0,0,0,0,0,0,0,0.0666,0.0667,0.0679,0.0673,0.0672,0.0662,0.0661,0.0632,0.062,0.0655,0.0653,0.0655,0.0581,0.0579,0.0573,0.0529,0.0536,0.0533,0.0531,0.053,0.0492,0.0493,0,0,0,0,0,0,0.0672,0.0667,0.0679,0.0679,0.0669,0.0663,0.0662,0.0666,0.0622,0.0616,0.0656,0.0654,0.0585,0.0576,0.0569,0.057,0.0533,0.0529,0.0528,0.0491,0.0492,0.0493,0,0,0,0,0,0,0.0672,0.0673,0.068,0.0674,0.0674,0.0665,0.0668,0.0666,0.0664,0.0624,0.0615,0.0657,0.0584,0.0574,0.0557,0.0565,0.0528,0.0525,0.049,0.0492,0.0493,0.0564,0,0,0,0,0,0,0.0671,0.0673,0.0677,0.0674,0.0675,0.0686,0.0669,0.0666,0.0667,0.0664,0.0622,0.0612,0.0582,0.0562,0.0554,0.056,0.0523,0.0489,0.0491,0.0492,0.056,0.0567,0.0573,0,0,0,0,0,0.0671,0.0676,0.0677,0.0678,0.068,0.0687,0.0686,0.0676,0.0668,0.0671,0.065,0.0614,0.0567,0.0561,0.055,0.0556,0.0488,0.049,0.0492,0.0557,0.0566,0.0573,0,0,0,0,0,0,0.0667,0.0674,0.0675,0.0681,0.0687,0.0683,0.0685,0.0681,0.0669,0.0663,0.0625,0.0615,0.0603,0.0573,0.0567,0.0552,0.0522,0.0522,0.0574,0.0582,0.0589,0.0601,0.052,0,0,0,0,0,0.0671,0.0677,0.0684,0.0689,0.0694,0.0692,0.0693,0.0689,0.068,0.0674,0.0648,0.0622,0.0605,0.0589,0.0566,0.0556,0.0559,0.0554,0.0561,0.0567,0.0571,0.0612,0.0623,0.0501,0.0501,0.05,0,0,0.067,0.0676,0.0679,0.069,0.0692,0.0702,0.069,0.0696,0.0701,0.0663,0.0659,0.0641,0.0609,0.0603,0.0594,0.0577,0.0603,0.0569,0.0575,0.0576,0.0616,0.0628,0.0638,0.0502,0.0502,0.0502,0,0,0.0675,0.068,0.0689,0.0697,0.0706,0.0709,0.0714,0.0716,0.0713,0.0712,0.0692,0.0691,0.065,0.0644,0.0632,0.0662,0.0639,0.0645,0.0685,0.0725,0.0736,0.0745,0.0767,0.0778,0.0647,0.0647,0.0647,0,0.0672,0.0687,0.0692,0.0704,0.0713,0.0715,0.0729,0.073,0.0726,0.0731,0.0714,0.0703,0.0674,0.0685,0.0696,0.0677,0.069,0.0657,0.0736,0.0745,0.0754,0.0773,0.0784,0.0651,0.0651,0.065,0.065,0,0.0686,0.0698,0.0705,0.0723,0.0734,0.0745,0.0755,0.0764,0.0762,0.0765,0.0777,0.0759,0.0757,0.0748,0.0726,0.077,0.0757,0.0743,0.0719,0.0771,0.0787,0.0798,0.0656,0.0655,0.0654,0.0653,0,0,0.0671,0.0708,0.0708,0.0724,0.0745,0.0756,0.0775,0.0797,0.0818,0.0816,0.0846,0.0831,0.0836,0.0824,0.0809,0.0837,0.0906,0.0817,0.0817,0.0844,0.0989,0.1002,0.1013,0.0912,0.0914,0.0916,0.0978,0,0.0678,0.0709,0.0724,0.0751,0.0769,0.0786,0.0807,0.0827,0.0842,0.0872,0.0874,0.0891,0.086,0.0871,0.0898,0.0903,0.0936,0.089,0.0929,0.093,0.094,0.1027,0.0952,0.1003,0.0987,0.0989,0.099,0,0.0677,0.0702,0.0734,0.0775,0.0784,0.0803,0.0848,0.0868,0.0911,0.0925,0.0956,0.0961,0.1,0.0969,0.1022,0.0996,0.1002,0.1004,0.1006,0.1,0.0963,0.0948,0.1022,0.1007,0.1006,0.1005,0.1003,0,0.066,0.0702,0.0731,0.0744,0.0793,0.0813,0.084,0.0883,0.0907,0.097,0.0999,0.1043,0.1072,0.1096,0.1096,0.1072,0.1155,0.112,0.1136,0.1135,0.1069,0.106,0.1172,0.1172,0.1172,0.1171,0.1171,0,0.0652,0.0669,0.0728,0.0741,0.0775,0.0814,0.0854,0.0888,0.0947,0.0987,0.1029,0.1076,0.1109,0.115,0.1141,0.1181,0.1196,0.1167,0.1168,0.1091,0.1084,0.1077,0.1065,0.1174,0.1173,0.1173,0.1172,0,0.0613,0.0656,0.0684,0.0745,0.0764,0.0785,0.0847,0.0878,0.0944,0.1004,0.103,0.1118,0.1191,0.1211,0.1261,0.1245,0.1271,0.1274,0.1176,0.1166,0.1209,0.12,0.1314,0.1315,0.1316,0.1317,0.1318,0,0.0593,0.0608,0.067,0.0688,0.0712,0.0756,0.0784,0.0859,0.0898,0.1025,0.1052,0.1161,0.122,0.1307,0.1325,0.1347,0.1324,0.1277,0.1222,0.1243,0.1232,0.1221,0.1211,0.1154,0.1154,0.1153,0.1153,0,0.0545,0.0569,0.0595,0.0639,0.0672,0.0713,0.0767,0.08,0.09,0.0971,0.1089,0.1157,0.1268,0.1295,0.1335,0.132,0.1271,0.1269,0.1339,0.1135,0.11,0.1086,0.108,0.1148,0.1149,0.1149,0.1149,0.1149,0.0495,0.0503,0.0545,0.0583,0.0623,0.0672,0.07,0.0773,0.0851,0.0955,0.1049,0.113,0.1197,0.1242,0.1235,0.1238,0.1301,0.1233,0.1232,0.1231,0.1208,0.1177,0.1234,0.1235,0.1236,0.1236,0.1237,0,0.0434,0.0464,0.0489,0.0542,0.0574,0.0619,0.0688,0.0723,0.081,0.091,0.1,0.0983,0.1041,0.1099,0.1118,0.1142,0.1089,0.109,0.1012,0.1019,0.1025,0.0986,0.0956,0.0955,0.0954,0.0953,0,0,0.0405,0.0419,0.0446,0.0487,0.0529,0.0575,0.0613,0.0677,0.0752,0.0806,0.0854,0.0958,0.1063,0.0978,0.1003,0.0988,0.0978,0.095,0.1182,0.1097,0.11,0.1127,0.108,0,0,0,0,0]},{"header":{"parameterUnit":"m.s-1","parameterCategory":2,"la1":30.2991,"la2":30.254,"lo1":-89.0895,"lo2":-89.0444,"dy":0.0017,"dx":0.0017,"nx":28,"ny":28,"refTime":"2026-02-08T09:00:00:Z","depth":"2","parameterNumber":3,"parameterNumberName":"V-component_of_CURRENTS"},"data":[0,0,0,0,0,0,0,0,0,0,0,0,0,0,0,0,0,0,0,0,0,0,0,0,0,0,0,0,0,0,0,0,0,0,0,0,0,0,0,0,0,0,0,0,0,0,0,0,0,0,0,0,0,0,0,0,0,0,-0.0507,-0.0507,0,-0.0546,-0.0547,-0.0547,-0.0586,-0.0586,-0.0587,-0.0587,-0.0582,-0.0582,-0.0581,0,0,0,0,0,0,0,0,0,0,0,0,0,-0.0493,-0.0493,-0.0507,-0.0507,-0.0507,-0.0546,-0.0547,-0.0548,-0.0586,-0.0586,-0.0587,-0.0587,-0.0583,-0.0582,-0.0581,0,0,0,0,0,0,0,0,0,0,0,0,0,-0.0513,-0.0493,-0.0507,-0.053,-0.0533,-0.0546,-0.0547,-0.0548,-0.0586,-0.0586,-0.0587,-0.0587,-0.0583,-0.0582,-0.0581,-0.0565,0,0,-0.0579,-0.0579,0,0,0,0,0,0,0,0,-0.0512,-0.0514,-0.0527,-0.0529,-0.0532,-0.0561,-0.054,-0.0551,-0.0586,-0.0567,-0.0587,-0.0588,-0.057,-0.057,-0.0579,-0.0564,-0.0564,-0.0579,-0.0578,-0.0578,-0.0578,0,0,0,0,0,0,0,-0.051,-0.0512,-0.0523,-0.0527,-0.053,-0.0549,-0.0552,-0.0543,-0.0564,-0.0568,-0.0571,-0.0574,-0.0571,-0.0579,-0.0579,-0.0564,-0.0579,-0.0578,-0.0578,-0.0578,-0.0554,-0.0554,0,0,0,0,0,0,-0.0501,-0.0511,-0.0522,-0.0525,-0.0522,-0.0549,-0.0552,-0.0552,-0.0566,-0.0568,-0.0573,-0.0575,-0.058,-0.0579,-0.0578,-0.0566,-0.0578,-0.0577,-0.0577,-0.0554,-0.0554,-0.0554,0,0,0,0,0,0,-0.0501,-0.0502,-0.0521,-0.0518,-0.0522,-0.0548,-0.0547,-0.0552,-0.0564,-0.0569,-0.0572,-0.0579,-0.0581,-0.0579,-0.058,-0.0565,-0.0577,-0.0576,-0.0554,-0.0554,-0.0554,-0.0535,0,0,0,0,0,0,-0.05,-0.0501,-0.0499,-0.0517,-0.0521,-0.0527,-0.0546,-0.0552,-0.0564,-0.0567,-0.0575,-0.0576,-0.0581,-0.0581,-0.0579,-0.0564,-0.0576,-0.0555,-0.0554,-0.0554,-0.0536,-0.0534,-0.0533,0,0,0,0,0,-0.0499,-0.0491,-0.0499,-0.0501,-0.0517,-0.0526,-0.053,-0.0552,-0.0563,-0.0565,-0.0578,-0.0576,-0.0577,-0.0581,-0.0578,-0.0563,-0.0555,-0.0554,-0.0554,-0.0537,-0.0535,-0.0533,0,0,0,0,0,0,-0.048,-0.0494,-0.0504,-0.0499,-0.0512,-0.0533,-0.0535,-0.0549,-0.0562,-0.0564,-0.0575,-0.0576,-0.0572,-0.057,-0.0573,-0.0556,-0.0564,-0.0564,-0.0552,-0.055,-0.0548,-0.0535,-0.0575,0,0,0,0,0,-0.0475,-0.0475,-0.0491,-0.0487,-0.0492,-0.0514,-0.0521,-0.0534,-0.0546,-0.0554,-0.056,-0.0564,-0.0567,-0.0562,-0.0565,-0.055,-0.0561,-0.0539,-0.0538,-0.0536,-0.0525,-0.0539,-0.0538,-0.0553,-0.0553,-0.0553,0,0,-0.0464,-0.0473,-0.0472,-0.0483,-0.0495,-0.0496,-0.052,-0.0526,-0.0529,-0.0548,-0.055,-0.056,-0.0565,-0.0558,-0.0554,-0.0554,-0.054,-0.0536,-0.0534,-0.0523,-0.0539,-0.0537,-0.0536,-0.0552,-0.0552,-0.0552,0,0,-0.0444,-0.0452,-0.0448,-0.0455,-0.047,-0.0483,-0.0483,-0.0501,-0.0513,-0.0516,-0.0534,-0.0538,-0.0536,-0.054,-0.0541,-0.0528,-0.0537,-0.0525,-0.0497,-0.0512,-0.0511,-0.051,-0.0533,-0.0535,-0.0518,-0.0518,-0.0518,0,-0.0431,-0.0429,-0.0447,-0.0444,-0.0446,-0.0474,-0.0467,-0.0481,-0.0498,-0.0501,-0.0513,-0.052,-0.0526,-0.0519,-0.0517,-0.0523,-0.0536,-0.0505,-0.051,-0.0509,-0.0508,-0.0533,-0.0534,-0.0517,-0.0517,-0.0517,-0.0517,0,-0.0409,-0.0409,-0.0404,-0.0411,-0.0416,-0.0413,-0.0432,-0.0439,-0.0454,-0.0467,-0.0469,-0.0485,-0.0486,-0.0489,-0.0498,-0.049,-0.0504,-0.0513,-0.0514,-0.0506,-0.0532,-0.0534,-0.0515,-0.0516,-0.0516,-0.0516,0,0,-0.0383,-0.0387,-0.0388,-0.0383,-0.0397,-0.0395,-0.0399,-0.0408,-0.0404,-0.0424,-0.0419,-0.0431,-0.0441,-0.0442,-0.0454,-0.0462,-0.0477,-0.0478,-0.0479,-0.05,-0.0515,-0.0513,-0.0515,-0.0486,-0.0486,-0.0486,-0.054,0,-0.0363,-0.0345,-0.0357,-0.034,-0.0334,-0.0353,-0.0349,-0.036,-0.0375,-0.0377,-0.04,-0.0398,-0.0423,-0.0417,-0.0432,-0.0464,-0.0479,-0.0461,-0.052,-0.0522,-0.052,-0.0516,-0.0489,-0.0532,-0.0542,-0.0542,-0.0542,0,-0.0349,-0.0337,-0.0314,-0.0302,-0.0299,-0.0291,-0.0287,-0.0288,-0.0304,-0.0313,-0.0324,-0.0345,-0.0358,-0.038,-0.0433,-0.0421,-0.0462,-0.0491,-0.0495,-0.0496,-0.0523,-0.054,-0.0536,-0.0546,-0.0546,-0.0545,-0.0545,0,-0.0329,-0.0312,-0.029,-0.0286,-0.0274,-0.0263,-0.0257,-0.0266,-0.0258,-0.027,-0.0262,-0.0297,-0.03,-0.0358,-0.0422,-0.0427,-0.0484,-0.0504,-0.0545,-0.0546,-0.0534,-0.0533,-0.054,-0.054,-0.054,-0.054,-0.054,0,-0.0312,-0.0296,-0.0274,-0.026,-0.0224,-0.0229,-0.0199,-0.0202,-0.0197,-0.0176,-0.0221,-0.021,-0.0291,-0.0336,-0.0408,-0.0479,-0.0479,-0.0535,-0.0554,-0.0528,-0.0527,-0.0543,-0.0543,-0.0542,-0.0542,-0.0541,-0.0541,0,-0.0299,-0.0291,-0.0259,-0.0229,-0.0216,-0.0189,-0.0155,-0.0134,-0.0135,-0.0108,-0.0106,-0.0143,-0.02,-0.0292,-0.0384,-0.0449,-0.0527,-0.0554,-0.0521,-0.0534,-0.0587,-0.0585,-0.0609,-0.0609,-0.061,-0.061,-0.061,0,-0.0287,-0.0271,-0.0227,-0.02,-0.0183,-0.0144,-0.0117,-0.0106,-0.0082,-0.0063,-0.0046,-0.0086,-0.0112,-0.0254,-0.0373,-0.0502,-0.0524,-0.0559,-0.0561,-0.0575,-0.0592,-0.059,-0.0588,-0.0549,-0.0549,-0.0548,-0.0548,0,-0.0257,-0.0246,-0.0213,-0.016,-0.0123,-0.0081,-0.004,-0.0011,0.0007,0.0035,0.0061,0.0044,-0.0082,-0.0195,-0.0366,-0.0453,-0.0538,-0.0557,-0.0578,-0.0529,-0.0521,-0.0537,-0.0536,-0.0546,-0.0546,-0.0546,-0.0546,-0.0546,-0.0227,-0.0199,-0.0158,-0.011,-0.0068,-0.0018,0.0025,0.0068,0.0118,0.0172,0.014,0.0141,-0.0009,-0.0203,-0.0352,-0.0499,-0.0517,-0.0568,-0.0568,-0.0568,-0.0545,-0.0536,-0.0561,-0.0561,-0.0561,-0.0561,-0.0562,0,-0.0185,-0.0158,-0.0109,-0.0051,-0.0002,0.0013,0.0078,0.0124,0.0197,0.0245,0.0268,0.0162,0.0024,-0.0137,-0.0348,-0.0496,-0.0506,-0.0536,-0.0516,-0.0519,-0.0521,-0.0494,-0.0497,-0.0497,-0.0497,-0.0497,0,0,-0.0158,-0.011,-0.009,-0.0006,0.0039,0.0112,0.0155,0.0222,0.0276,0.0335,0.0356,0.0311,0.0102,-0.0033,-0.0242,-0.0359,-0.0399,-0.038,-0.042,-0.0376,-0.0375,-0.0533,-0.0494,0,0,0,0,0]}],[{"header":{"parameterUnit":"m.s-1","parameterCategory":2,"la1":30.2991,"la2":30.254,"lo1":-89.0895,"lo2":-89.0444,"dy":0.0017,"dx":0.0017,"nx":28,"ny":28,"refTime":"2026-02-08T09:00:00:Z","depth":"4","parameterNumber":2,"parameterNumberName":"U-component_of_CURRENTS"},"data":[0,0,0,0,0,0,0,0,0,0,0,0,0,0,0,0,0,0,0,0,0,0,0,0,0,0,0,0,0,0,0,0,0,0,0,0,0,0,0,0,0,0,0,0,0,0,0,0,0,0,0,0,0,0,0,0,0,0,0.0387,0.0387,0,0.0408,0.0408,0.0408,0.0421,0.0421,0.0421,0.0422,0.0435,0.0435,0.0435,0,0,0,0,0,0,0,0,0,0,0,0,0,0.0368,0.0368,0.0387,0.0387,0.0388,0.0408,0.0408,0.0408,0.0421,0.0421,0.0421,0.0422,0.0435,0.0435,0.0435,0,0,0,0,0,0,0,0,0,0,0,0,0,0.038,0.0368,0.0387,0.0397,0.0398,0.0408,0.0408,0.0408,0.0421,0.0421,0.0422,0.0422,0.0434,0.0435,0.0435,0.0433,0,0,0.0436,0.0436,0,0,0,0,0,0,0,0,0.038,0.0381,0.0395,0.0396,0.0398,0.0413,0.0406,0.0417,0.0421,0.0412,0.0422,0.0422,0.0427,0.0428,0.043,0.0434,0.0434,0.0436,0.0436,0.0436,0.0437,0,0,0,0,0,0,0,0.0379,0.038,0.0394,0.0396,0.0397,0.0404,0.0406,0.0408,0.0417,0.0412,0.0414,0.0417,0.0427,0.043,0.0431,0.0434,0.0436,0.0436,0.0437,0.0437,0.0461,0.0461,0,0,0,0,0,0,0.0377,0.0379,0.0394,0.0395,0.039,0.0404,0.0406,0.0407,0.0417,0.0419,0.0417,0.0418,0.0429,0.043,0.0431,0.0459,0.0436,0.0437,0.0437,0.0461,0.0461,0.0462,0,0,0,0,0,0,0.0376,0.0378,0.0393,0.0389,0.0391,0.0404,0.0405,0.0407,0.0421,0.0421,0.0423,0.043,0.043,0.0431,0.0443,0.0459,0.0437,0.0437,0.046,0.0461,0.0461,0.0496,0,0,0,0,0,0,0.0376,0.0378,0.0383,0.0388,0.0391,0.0406,0.0405,0.0408,0.0423,0.0424,0.0432,0.0433,0.043,0.0443,0.0444,0.0459,0.0437,0.0459,0.046,0.0461,0.0494,0.0498,0.0501,0,0,0,0,0,0.0375,0.038,0.0383,0.0385,0.0396,0.0406,0.0409,0.0418,0.0423,0.0431,0.0437,0.0433,0.0449,0.0444,0.0445,0.046,0.0459,0.046,0.0461,0.0493,0.0497,0.0501,0,0,0,0,0,0,0.0376,0.0382,0.0385,0.0393,0.0403,0.0409,0.042,0.0425,0.0436,0.0441,0.044,0.0441,0.0456,0.0452,0.0447,0.0468,0.0453,0.0454,0.0477,0.0481,0.0484,0.0487,0.0438,0,0,0,0,0,0.0378,0.0385,0.0391,0.04,0.0405,0.0414,0.0422,0.0429,0.0437,0.0443,0.045,0.0455,0.0459,0.0466,0.0467,0.0481,0.0481,0.0491,0.0494,0.0497,0.0499,0.0508,0.0512,0.0465,0.0465,0.0465,0,0,0.0381,0.0387,0.039,0.0401,0.0409,0.042,0.042,0.0435,0.0447,0.0442,0.0464,0.0466,0.0464,0.0479,0.0486,0.048,0.0512,0.0498,0.0501,0.0501,0.051,0.0514,0.0518,0.0466,0.0465,0.0465,0,0,0.0387,0.0395,0.0401,0.0411,0.0426,0.0433,0.044,0.0453,0.0464,0.0482,0.048,0.0491,0.0503,0.0504,0.0505,0.0526,0.0526,0.053,0.0554,0.0563,0.0567,0.057,0.0586,0.0591,0.0535,0.0535,0.0536,0,0.039,0.0399,0.0406,0.0416,0.0428,0.044,0.0452,0.0463,0.0481,0.0493,0.0494,0.0514,0.0512,0.0528,0.0537,0.0534,0.0543,0.0541,0.0568,0.0571,0.0574,0.0589,0.0594,0.0537,0.0537,0.0537,0.0537,0,0.0397,0.041,0.0417,0.0433,0.0447,0.0462,0.0476,0.0495,0.0511,0.0521,0.0546,0.0546,0.056,0.0561,0.0557,0.058,0.0582,0.0568,0.0559,0.0581,0.0596,0.06,0.054,0.0539,0.0539,0.0538,0,0,0.0382,0.0416,0.0417,0.0433,0.0459,0.047,0.0497,0.0521,0.0542,0.056,0.0586,0.0594,0.0602,0.0603,0.0601,0.0609,0.0641,0.0605,0.0605,0.0624,0.0674,0.0669,0.0673,0.0637,0.0638,0.0638,0.0679,0,0.0386,0.041,0.0426,0.0454,0.0469,0.0495,0.0518,0.0543,0.0567,0.0595,0.0603,0.0624,0.0615,0.0629,0.0637,0.0639,0.0652,0.0631,0.0647,0.0648,0.0643,0.0678,0.064,0.0683,0.0684,0.0684,0.0685,0,0.0379,0.04,0.0428,0.0471,0.048,0.0501,0.0546,0.0569,0.0607,0.0627,0.0654,0.0664,0.0687,0.067,0.0694,0.0686,0.0686,0.0682,0.0684,0.0669,0.0651,0.0653,0.0692,0.0692,0.0691,0.0691,0.069,0,0.0359,0.0399,0.0425,0.0439,0.0486,0.051,0.0539,0.058,0.0605,0.0652,0.0677,0.0704,0.0725,0.0729,0.0739,0.0721,0.0763,0.0731,0.0727,0.0727,0.0702,0.0698,0.0744,0.0744,0.0744,0.0744,0.0744,0,0.035,0.0369,0.0421,0.0435,0.047,0.0507,0.0547,0.058,0.0628,0.0659,0.0694,0.0722,0.0741,0.0769,0.0762,0.0774,0.0786,0.0742,0.074,0.0717,0.0713,0.0706,0.0701,0.0746,0.0745,0.0745,0.0745,0,0.0321,0.0354,0.0385,0.0441,0.046,0.0485,0.0547,0.0574,0.0627,0.0671,0.069,0.0747,0.079,0.0812,0.0829,0.0807,0.0811,0.0809,0.0807,0.0802,0.076,0.0756,0.0799,0.0799,0.08,0.08,0.08,0,0.0309,0.0322,0.0379,0.0399,0.0427,0.0472,0.0501,0.0563,0.0593,0.068,0.0696,0.0766,0.08,0.0825,0.0848,0.0859,0.0842,0.0841,0.0776,0.0774,0.0767,0.0763,0.0759,0.08,0.08,0.08,0.08,0,0.0283,0.0305,0.0332,0.0372,0.0407,0.0442,0.0492,0.0512,0.0587,0.0639,0.0692,0.073,0.0786,0.0813,0.0846,0.084,0.0839,0.0842,0.084,0.0779,0.0775,0.0768,0.0764,0.0801,0.0801,0.0801,0.0801,0,0.0262,0.0272,0.0308,0.0342,0.038,0.0409,0.0439,0.0487,0.0527,0.0624,0.0642,0.0719,0.0777,0.0805,0.0828,0.0842,0.0813,0.0769,0.077,0.077,0.0744,0.0733,0.0755,0,0,0,0,0,0.024,0.0252,0.0278,0.0315,0.0351,0.0376,0.0432,0.0466,0.054,0.0562,0.0603,0.0654,0.0713,0.0751,0.0758,0.0815,0.0814,0.082,0.0762,0.0805,0.0804,0.0777,0,0,0,0,0,0,0.0226,0.0248,0.0265,0.0287,0.0307,0.0345,0.038,0.043,0.0447,0.0523,0.0554,0.0616,0.0675,0.0699,0.0743,0.0757,0.0709,0.0869,0.0868,0.0805,0.0805,0.0804,0.0776,0,0,0,0,0]},{"header":{"parameterUnit":"m.s-1","parameterCategory":2,"la1":30.2991,"la2":30.254,"lo1":-89.0895,"lo2":-89.0444,"dy":0.0017,"dx":0.0017,"nx":28,"ny":28,"refTime":"2026-02-08T09:00:00:Z","depth":"4","parameterNumber":3,"parameterNumberName":"V-component_of_CURRENTS"},"data":[0,0,0,0,0,0,0,0,0,0,0,0,0,0,0,0,0,0,0,0,0,0,0,0,0,0,0,0,0,0,0,0,0,0,0,0,0,0,0,0,0,0,0,0,0,0,0,0,0,0,0,0,0,0,0,0,0,0,-0.0187,-0.0187,0,-0.0222,-0.0222,-0.0223,-0.0257,-0.0258,-0.0258,-0.0259,-0.0301,-0.0302,-0.0302,0,0,0,0,0,0,0,0,0,0,0,0,0,-0.016,-0.016,-0.0187,-0.0187,-0.0187,-0.0222,-0.0222,-0.0223,-0.0257,-0.0258,-0.0259,-0.0259,-0.0301,-0.0302,-0.0302,0,0,0,0,0,0,0,0,0,0,0,0,0,-0.0181,-0.016,-0.0186,-0.0209,-0.0211,-0.0222,-0.0222,-0.0223,-0.0257,-0.0258,-0.0259,-0.0259,-0.03,-0.0302,-0.0303,-0.0295,0,0,-0.0306,-0.0306,0,0,0,0,0,0,0,0,-0.018,-0.0182,-0.0205,-0.0207,-0.021,-0.0236,-0.0228,-0.0247,-0.0257,-0.024,-0.0259,-0.026,-0.0279,-0.0282,-0.0287,-0.0297,-0.0299,-0.0306,-0.0306,-0.0307,-0.0307,0,0,0,0,0,0,0,-0.0178,-0.0181,-0.0201,-0.0206,-0.0209,-0.0221,-0.0224,-0.0232,-0.0255,-0.0241,-0.0244,-0.0248,-0.0281,-0.0286,-0.0288,-0.0299,-0.0306,-0.0307,-0.0307,-0.0308,-0.0336,-0.0336,0,0,0,0,0,0,-0.0172,-0.0179,-0.0199,-0.0202,-0.0196,-0.0221,-0.0225,-0.0227,-0.0255,-0.026,-0.0247,-0.0249,-0.0284,-0.0287,-0.029,-0.031,-0.0307,-0.0308,-0.0308,-0.0336,-0.0336,-0.0336,0,0,0,0,0,0,-0.0172,-0.0174,-0.0198,-0.0191,-0.0195,-0.022,-0.0223,-0.0227,-0.024,-0.026,-0.0265,-0.0256,-0.0285,-0.0289,-0.0306,-0.0311,-0.0308,-0.0309,-0.0336,-0.0336,-0.0336,-0.0333,0,0,0,0,0,0,-0.0171,-0.0173,-0.0174,-0.0191,-0.0195,-0.0203,-0.0222,-0.0227,-0.0241,-0.0244,-0.0269,-0.0273,-0.0285,-0.0305,-0.0307,-0.0313,-0.031,-0.0336,-0.0336,-0.0336,-0.0333,-0.0333,-0.0333,0,0,0,0,0,-0.017,-0.0166,-0.0174,-0.0177,-0.0196,-0.0203,-0.0206,-0.0227,-0.0241,-0.0242,-0.0265,-0.0273,-0.0308,-0.0306,-0.0309,-0.0314,-0.0336,-0.0336,-0.0336,-0.0333,-0.0333,-0.0333,0,0,0,0,0,0,-0.0156,-0.0169,-0.0179,-0.018,-0.0191,-0.0209,-0.0213,-0.0227,-0.0246,-0.0253,-0.0274,-0.028,-0.0299,-0.0304,-0.0301,-0.0323,-0.0323,-0.0324,-0.0319,-0.032,-0.032,-0.0325,-0.0311,0,0,0,0,0,-0.0152,-0.0153,-0.0168,-0.017,-0.0174,-0.0194,-0.0201,-0.0215,-0.0232,-0.0242,-0.0261,-0.0281,-0.03,-0.0308,-0.0323,-0.0331,-0.0345,-0.0337,-0.0337,-0.0337,-0.0343,-0.0375,-0.0379,-0.0337,-0.0337,-0.0337,0,0,-0.0148,-0.0155,-0.0157,-0.0167,-0.0178,-0.0182,-0.02,-0.0209,-0.0219,-0.0242,-0.0262,-0.0282,-0.0303,-0.0319,-0.0327,-0.0325,-0.0353,-0.0338,-0.0337,-0.0344,-0.0376,-0.038,-0.0383,-0.0338,-0.0338,-0.0337,0,0,-0.0136,-0.0145,-0.0142,-0.0149,-0.0162,-0.0174,-0.0177,-0.0197,-0.0212,-0.0229,-0.0254,-0.028,-0.0299,-0.0321,-0.0334,-0.0341,-0.0354,-0.0342,-0.0346,-0.0376,-0.038,-0.0383,-0.0392,-0.0396,-0.034,-0.034,-0.034,0,-0.0133,-0.0133,-0.0142,-0.0141,-0.0151,-0.017,-0.0174,-0.0186,-0.0211,-0.0228,-0.0233,-0.0287,-0.0302,-0.0336,-0.0341,-0.0343,-0.0356,-0.0344,-0.0377,-0.0381,-0.0385,-0.0393,-0.0398,-0.034,-0.034,-0.034,-0.034,0,-0.0119,-0.0123,-0.0121,-0.0129,-0.0136,-0.0143,-0.016,-0.0173,-0.0195,-0.0215,-0.0254,-0.0282,-0.0315,-0.0323,-0.0336,-0.0371,-0.0369,-0.0375,-0.0377,-0.0389,-0.0396,-0.0401,-0.034,-0.034,-0.034,-0.034,0,0,-0.0119,-0.0113,-0.0117,-0.0122,-0.0136,-0.0142,-0.0154,-0.0179,-0.0196,-0.0224,-0.0254,-0.0294,-0.0317,-0.0333,-0.0355,-0.0382,-0.0414,-0.039,-0.0391,-0.0399,-0.0469,-0.0427,-0.0428,-0.043,-0.0431,-0.0432,-0.0458,0,-0.0116,-0.0108,-0.011,-0.0117,-0.0122,-0.014,-0.015,-0.0173,-0.0198,-0.0226,-0.0267,-0.0298,-0.0317,-0.0336,-0.0369,-0.0405,-0.043,-0.0406,-0.0456,-0.0457,-0.042,-0.0434,-0.0436,-0.0462,-0.0463,-0.0464,-0.0465,0,-0.0119,-0.0113,-0.0113,-0.0121,-0.0125,-0.0131,-0.0162,-0.0172,-0.0209,-0.0228,-0.0269,-0.0297,-0.0345,-0.0356,-0.0428,-0.0412,-0.0443,-0.0468,-0.047,-0.0438,-0.0426,-0.0452,-0.0474,-0.0474,-0.0473,-0.0472,-0.0472,0,-0.013,-0.0127,-0.0128,-0.0131,-0.0134,-0.0145,-0.0153,-0.0181,-0.0189,-0.0232,-0.0242,-0.0305,-0.033,-0.0389,-0.0434,-0.0438,-0.0503,-0.0513,-0.0503,-0.05,-0.0531,-0.0527,-0.0568,-0.0568,-0.0568,-0.0567,-0.0567,0,-0.0139,-0.0144,-0.0134,-0.0135,-0.0139,-0.0147,-0.0159,-0.0174,-0.0193,-0.0195,-0.0245,-0.0256,-0.0341,-0.0382,-0.0433,-0.0475,-0.0502,-0.0508,-0.0509,-0.0526,-0.0521,-0.0534,-0.053,-0.0568,-0.0568,-0.0568,-0.0568,0,-0.0151,-0.0147,-0.0146,-0.0144,-0.0143,-0.0147,-0.0144,-0.0147,-0.0168,-0.0171,-0.0181,-0.0226,-0.0274,-0.0344,-0.0428,-0.0458,-0.0511,-0.0518,-0.0514,-0.0513,-0.0489,-0.0485,-0.052,-0.0519,-0.0518,-0.0517,-0.0516,0,-0.015,-0.0153,-0.0144,-0.0134,-0.0131,-0.0131,-0.0123,-0.0136,-0.0129,-0.0141,-0.0136,-0.0182,-0.0214,-0.0289,-0.0376,-0.0467,-0.0478,-0.0502,-0.052,-0.049,-0.0488,-0.0484,-0.0481,-0.0515,-0.0515,-0.0514,-0.0514,0,-0.0146,-0.0149,-0.0138,-0.0117,-0.0108,-0.0091,-0.0081,-0.0071,-0.0074,-0.0093,-0.0082,-0.0127,-0.0174,-0.0257,-0.0322,-0.0391,-0.049,-0.0493,-0.0496,-0.0513,-0.0484,-0.0482,-0.048,-0.0511,-0.0511,-0.0512,-0.0512,0,-0.0139,-0.0129,-0.0114,-0.0096,-0.0077,-0.0051,-0.005,-0.0029,-0.0025,-0.0033,-0.0026,-0.0084,-0.0128,-0.0216,-0.0279,-0.034,-0.0365,-0.0387,-0.0396,-0.0401,-0.0361,-0.0306,-0.0283,0,0,0,0,0,-0.0128,-0.0112,-0.0089,-0.0064,-0.0043,-0.0035,-0.0015,-0.0014,-0.0015,0.0009,-0.0005,-0.0041,-0.0124,-0.0171,-0.0223,-0.0282,-0.0392,-0.0347,-0.0425,-0.0492,-0.0496,-0.0467,0,0,0,0,0,0,-0.0118,-0.0099,-0.0084,-0.004,-0.0019,0.0005,0.0018,0.0019,0.003,0.0024,-0.0018,-0.0046,-0.0135,-0.0088,-0.022,-0.0243,-0.0297,-0.0395,-0.0396,-0.049,-0.0494,-0.0497,-0.0468,0,0,0,0,0]}]]